Location: Strawberry
(45.6646°N, 111.9596°W)
Time: 19:35:23
(UTC+00:00)

RS-15 - Pass Details

Date: 06 December 2022
Orbit: 1883 x 2162 km, 64.8° (Epoch: 08 February)

Event Time Altitude Azimuth Distance (km) Brightness Sun altitude
Rises 02:54:43 0° 321° (NW) 5,688 11.0 -32.4°
Reaches altitude 10° 02:58:16 10° 324° (NW) 4,669 10.4 -33.0°
Maximum altitude 03:10:33 72° 49° (NE) 2,179 7.9 -35.2°
Enters shadow 03:11:48 68° 85° (E) 2,212 7.9 -35.4°
